Weather History for Jonesboro, AR

Change the Weather History Date:

Monday, April 1, 2013

  Actual Average Record
Temperature  
Mean Temperature 54 °F 55 °F  
Max Temperature 61 °F 66 °F 90 °F (1940)
Min Temperature 46 °F 45 °F 26 °F (1926)
Degree Days  
Heating Degree Days 11 10  
Month to date heating degree days 11 10  
Since 1 July heating degree days 3254 3430  
Cooling Degree Days 0 1  
Month to date cooling degree days 0 1  
Year to date cooling degree days 0 7  
Growing Degree Days 4 (Base 50)    
Moisture  
Dew Point 42 °F    
Average Humidity 68    
Maximum Humidity 86    
Minimum Humidity 49    
Precipitation  
Precipitation 0.00 in 0.17 in 2.00 in (1979)
Month to date precipitation 0.00 0.17  
Year to date precipitation 11.88 11.82  
Snow  
Snow 0.00 in 0.00 in T in (1993)
Month to date snowfall 0.0 0.0  
Since 1 July snowfall 11.0 4.8  
Snow Depth 0.00 in    
Sea Level Pressure  
Sea Level Pressure 30.08 in    
Wind  
Wind Speed 9 mph (NE)    
Max Wind Speed 21 mph    
Max Gust Speed 30 mph    
Visibility 10 miles    
Events      
T = Trace of Precipitation, MM = Missing Value Source: NWS Daily Summary

Daily Weather History Graph

Daily Weather History Graph

Search for Another Location

Airport:

Trip Planner

Search our weather history database for the weather conditions in past years. The results will help you decide how hot, cold, wet, or windy it might be!

Date:

Astronomy

Apr. 01, 2013 Rise Set
Actual Time 6:48 AM CDT 7:24 PM CDT
Civil Twilight 6:22 AM CDT 7:50 PM CDT
Nautical Twilight 5:52 AM CDT 8:20 PM CDT
Astronomical Twilight 5:21 AM CDT 8:51 PM CDT
Moon 12:24 AM CDT (4/1) 10:44 AM CDT (4/1)
Length of Visible Light 13h 27m
Length of Day
12h 35m
Waning Gibbous, 67% of the Moon is Illuminated
Apr 1
Waning Gibbous
Apr 2
Last Quarter
Apr 10
New
Apr 18
First Quarter
Apr 25
Full

Hourly Weather History & Observations

Time (CDT) Temp. Dew Point Humidity Pressure Visibility Wind Dir Wind Speed Gust Speed Precip Events Conditions
12:53 AM 52.0 °F 46.9 °F 83% 29.94 in 10.0 mi West 5.8 mph - N/A   Clear
1:53 AM 52.0 °F 46.0 °F 80% 29.95 in 10.0 mi West 5.8 mph - N/A   Clear
2:53 AM 53.1 °F 46.9 °F 80% 29.95 in 10.0 mi WNW 8.1 mph - N/A   Clear
3:53 AM 52.0 °F 46.9 °F 83% 29.96 in 10.0 mi WNW 9.2 mph - N/A   Clear
4:53 AM 50.0 °F 46.0 °F 86% 29.98 in 10.0 mi NW 5.8 mph - N/A   Clear
5:53 AM 50.0 °F 44.1 °F 80% 30.01 in 10.0 mi NNW 4.6 mph - N/A   Clear
6:53 AM 50.0 °F 42.1 °F 74% 30.04 in 10.0 mi NNE 6.9 mph - N/A   Clear
7:53 AM 51.1 °F 41.0 °F 68% 30.08 in 10.0 mi NE 11.5 mph - N/A   Clear
8:53 AM 51.1 °F 42.1 °F 71% 30.10 in 10.0 mi ENE 11.5 mph - N/A   Clear
9:53 AM 52.0 °F 39.0 °F 61% 30.13 in 10.0 mi NE 15.0 mph 23.0 mph N/A   Clear
10:53 AM 53.1 °F 39.9 °F 61% 30.14 in 10.0 mi ENE 15.0 mph - N/A   Clear
11:53 AM 55.0 °F 41.0 °F 59% 30.15 in 10.0 mi North - - N/A   Clear
12:53 PM 55.9 °F 42.1 °F 60% 30.15 in 10.0 mi ENE 11.5 mph - N/A   Clear
1:53 PM 57.9 °F 43.0 °F 58% 30.13 in 10.0 mi East 11.5 mph - N/A   Clear
2:53 PM 59.0 °F 42.1 °F 53% 30.12 in 10.0 mi East 9.2 mph - N/A   Clear
3:53 PM 60.1 °F 42.1 °F 51% 30.11 in 10.0 mi ENE 8.1 mph - N/A   Clear
4:53 PM 60.1 °F 41.0 °F 49% 30.11 in 10.0 mi ENE 4.6 mph - N/A   Clear
5:53 PM 59.0 °F 43.0 °F 55% 30.11 in 10.0 mi East 6.9 mph - N/A   Clear
6:53 PM 57.9 °F 42.1 °F 56% 30.10 in 10.0 mi East 6.9 mph - N/A   Clear
7:53 PM 55.9 °F 44.1 °F 64% 30.11 in 10.0 mi East 3.5 mph - N/A   Clear
8:53 PM 54.0 °F 44.1 °F 69% 30.14 in 10.0 mi ENE 6.9 mph - N/A   Clear
9:53 PM 50.0 °F 42.1 °F 74% 30.14 in 10.0 mi ENE 11.5 mph - N/A   Partly Cloudy
10:53 PM 48.9 °F 37.0 °F 64% 30.15 in 10.0 mi NE 11.5 mph - N/A   Clear
11:53 PM 48.0 °F 34.0 °F 58% 30.16 in 10.0 mi NE 11.5 mph - N/A   Clear